Powrót do katalogu

FOSSASAT2E24

AktywnyŁącznośćSSO
NORAD 66780·PAYLOAD·🇪🇸 Spain

Wystrzelony Nov 28, 2025 z Vandenberg Space Force Base

Loading…

Następne Przeloty (najbliższe 24 godziny)

TLE

ŚwieżeSource: Space-Track

Epoka: Sep 13, 2026, 17:42 UTC

1 66780U 25276DU  26256.73784692  .00002406  00000-0  11688-3 0  9995
2 66780  97.4102 328.4145 0004814 162.3664 197.7739 15.19394128 43850

Śledź FOSSASAT2E24 w czasie rzeczywistym z AllMySat

Download on the App Store